Weather History for Juneau, AK

Change the Weather History Date:

Saturday, October 22, 2011

  Actual Average Record
Temperature  
Mean Temperature 44 °F 40 °F  
Max Temperature 45 °F 45 °F 56 °F (1965)
Min Temperature 42 °F 36 °F 22 °F (1951)
Degree Days  
Heating Degree Days 21 25  
Month to date heating degree days 493 463  
Since 1 July heating degree days 1601 1447  
Cooling Degree Days 0 0  
Month to date cooling degree days 0 0  
Year to date cooling degree days 0 2  
Moisture  
Dew Point 41 °F    
Average Humidity 90    
Maximum Humidity 96    
Minimum Humidity 83    
Precipitation  
Precipitation 0.11 in 0.27 in 2.23 in (1953)
Month to date precipitation 4.17 6.43  
Year to date precipitation 48.31 48.24  
Snow  
Snow 0.00 in 0.00 in 2.00 in (1966)
Month to date snowfall 0.0 0.2  
Since 1 July snowfall 0.0 0.2  
Since 1 September snowfall 0.0 0.2  
Snow Depth 0.00 in    
Sea Level Pressure  
Sea Level Pressure 29.58 in    
Wind  
Wind Speed 15 mph (ESE)    
Max Wind Speed 21 mph    
Max Gust Speed 28 mph    
Visibility 10 miles    
Events Rain    
T = Trace of Precipitation, MM = Missing Value Source: NWS Daily Summary

Daily Weather History Graph

Daily Weather History Graph

Search for Another Location

Airport:

Trip Planner

Search our weather history database for the weather conditions in past years. The results will help you decide how hot, cold, wet, or windy it might be!

Date:

Astronomy

Oct. 22, 2011 Rise Set
Actual Time 7:50 AM AKDT 5:34 PM AKDT
Civil Twilight 7:09 AM AKDT 6:15 PM AKDT
Nautical Twilight 6:22 AM AKDT 7:01 PM AKDT
Astronomical Twilight 5:36 AM AKDT 7:47 PM AKDT
Moon 1:56 AM AKDT 3:46 PM AKDT
Length of Visible Light 11h 06m
Length of Day
9h 44m
Waning Crescent, 22% of the Moon is Illuminated
Oct 22
Waning Crescent
Oct 26
New
Nov 2
First Quarter
Nov 10
Full
Nov 18
Last Quarter

Hourly Weather History & Observations

Time (AKDT) Temp. Windchill Dew Point Humidity Pressure Visibility Wind Dir Wind Speed Gust Speed Precip Events Conditions
12:53 AM 44.1 °F 36.8 °F 39.0 °F 82% 29.62 in 10.0 mi East 16.1 mph - 0.00 in   Overcast
1:28 AM 42.8 °F 35.1 °F 39.2 °F 87% 29.61 in 7.0 mi East 16.1 mph - 0.00 in Rain Rain
1:53 AM 43.0 °F 35.4 °F 41.0 °F 93% 29.60 in 7.0 mi East 16.1 mph - 0.01 in Rain Light Rain
2:53 AM 43.0 °F 35.7 °F 41.0 °F 93% 29.60 in 8.0 mi East 15.0 mph - 0.03 in Rain Light Rain
3:53 AM 43.0 °F 36.8 °F 39.9 °F 89% 29.58 in 10.0 mi ESE 11.5 mph - 0.01 in Rain Light Rain
4:30 AM 42.8 °F 36.6 °F 39.2 °F 87% 29.58 in 10.0 mi ESE 11.5 mph - 0.00 in   Overcast
4:53 AM 43.0 °F 37.7 °F 41.0 °F 93% 29.57 in 10.0 mi East 9.2 mph - 0.01 in   Overcast
5:53 AM 42.1 °F 36.6 °F 41.0 °F 96% 29.55 in 10.0 mi East 9.2 mph - 0.00 in   Overcast
6:53 AM 43.0 °F 37.2 °F 41.0 °F 93% 29.52 in 10.0 mi East 10.4 mph - 0.00 in Rain Light Rain
7:53 AM 43.0 °F 35.7 °F 41.0 °F 93% 29.51 in 10.0 mi East 15.0 mph - 0.00 in Rain Light Rain
8:53 AM 43.0 °F 37.2 °F 41.0 °F 93% 29.50 in 10.0 mi East 10.4 mph - 0.00 in   Overcast
9:53 AM 44.1 °F 38.1 °F 41.0 °F 89% 29.49 in 10.0 mi ESE 11.5 mph - 0.00 in Rain Light Rain
10:53 AM 44.1 °F 37.7 °F 41.0 °F 89% 29.51 in 10.0 mi ESE 12.7 mph - 0.00 in Rain Light Rain
11:53 AM 44.1 °F 36.5 °F 41.0 °F 89% 29.52 in 10.0 mi ESE 17.3 mph - 0.00 in Rain Light Rain
12:53 PM 43.0 °F 34.8 °F 39.9 °F 89% 29.54 in 10.0 mi ESE 18.4 mph 26.5 mph 0.03 in Rain Light Rain
1:53 PM 43.0 °F 34.5 °F 41.0 °F 93% 29.57 in 10.0 mi ESE 19.6 mph 26.5 mph 0.00 in Rain Light Rain
2:53 PM 43.0 °F 35.1 °F 41.0 °F 93% 29.57 in 7.0 mi ESE 17.3 mph - 0.00 in Rain Light Rain
3:53 PM 43.0 °F 34.8 °F 41.0 °F 93% 29.58 in 9.0 mi ESE 18.4 mph - 0.00 in Rain Light Rain
4:07 PM 44.6 °F 36.9 °F 41.0 °F 87% 29.58 in 8.0 mi ESE 18.4 mph - 0.00 in Rain Light Rain
4:53 PM 44.1 °F 36.5 °F 41.0 °F 89% 29.59 in 9.0 mi ESE 17.3 mph - 0.00 in Rain Rain
5:53 PM 44.1 °F 37.1 °F 41.0 °F 89% 29.61 in 10.0 mi ESE 15.0 mph - 0.02 in   Overcast
6:53 PM 44.1 °F 36.8 °F 41.0 °F 89% 29.61 in 10.0 mi ESE 16.1 mph - N/A   Overcast
7:53 PM 44.1 °F 37.1 °F 39.9 °F 85% 29.62 in 10.0 mi ESE 15.0 mph - 0.00 in Rain Light Rain
8:53 PM 44.1 °F 36.8 °F 39.9 °F 85% 29.63 in 10.0 mi SE 16.1 mph - 0.00 in Rain Light Rain
9:53 PM 44.1 °F 36.8 °F 39.9 °F 85% 29.65 in 10.0 mi ESE 16.1 mph - 0.00 in   Overcast
10:49 PM 42.8 °F 35.8 °F 41.0 °F 93% 29.66 in 10.0 mi ESE 13.8 mph - 0.00 in Rain Light Rain
10:53 PM 44.1 °F 36.8 °F 39.9 °F 85% 29.66 in 10.0 mi ESE 16.1 mph - 0.00 in Rain Light Rain
11:53 PM 43.0 °F 35.1 °F 39.9 °F 89% 29.67 in 10.0 mi ESE 17.3 mph - 0.00 in   Overcast